Location: Alphen
(52.1351°N, 4.6549°E)
Time: 00:34:12
(UTC+00:00)

ALOS - Pass Details

Date: 27 January 2021
Orbit: 682 x 685 km, 97.9° (Epoch: 26 February)

Event Time Altitude Azimuth Distance (km) Brightness Sun altitude
Rises 06:10:34 0° 2° (N) 3,061 5.5 -12.0°
Reaches altitude 10° 06:13:52 10° 337° (NNW) 2,140 4.5 -11.5°
Maximum altitude 06:16:10 14° 307° (NW) 1,893 4.0 -11.1°
Enters shadow 06:16:21 14° 305° (NW) 1,894 4.0 -11.1°
